SCP
0 0 0 0 0 0 0 0 0 0 0 0 0 0 0 0 0 0 0 0 0 0 0 0 0 0 0 0 0 0 0 0 0 0 0 0 0 0 0 0 0 0 0
0 0 0 0 0 0 0 0 0 0 0 0 0 0 0 0 0 0 0 0 0 0 0 0 0 0 0 0 0 0 0 0 0 0 0 0 0 0 0 0 0 0 0
0 0 0 0 0 0 0 0 0 0 0 0 0 0 0 0 0 0 0 0 0 0 0 0 0 0 0 0 0 0 0 0 0 0 0 0 0 0 0 0 0 0 0
0 0 0 0 0 0 0 0 0 0 0 0 0 0 0 0 0 0 0 0 0 0 0 0 0 0 0 0 0 0 0 0 0 0 0 0 0 0 0 0 0 0 0
0 0 0 0 0 0 0 0 0 0 0 0 0 0 0 0 0 0 0 0 0 0 0 0 0 0 0 0 0 0 0 0 0 0 0 0 0 0 0 0 0 0 0
0 0 0 0 0 0 0 0 0 0 0 0 0 0 0 0 0 0 0 0 0 0 0 0 0 0 0 0 0 0 0 0 0 0 0 0 0 0 0 0 0 0 0
-0 0 0 0 0 0 0 0 0 0 0 0 0 0 0 0 0 0 0 0 0 0 0 0 0 0 0 0 0 0 0 0 0 0 0 0 0 0 0 0 0 0 0
0 0 0 0 0 0 0 0 0 0 0 0 0 0 0 0 0 0 0 0 0 0 0 0 0 0 0 0 0 0 0 0 0 0 0 0 0 0 0 0 0 0 0
0 0 0 0 0 0 0 0 0 0 0 0 0 0 0 0 0 0 0 0 0 0 0 0 0 0 0 0 0 0 0 0 0 0 0 0 0 0 0 0 0 0 0
0 0 0 0 0 0 0 0 0 0 0 0 0 0 0 0 0 0 0 0 0 0 0 0 0 0 0 0 0 0 0 0 0 0 0 0 0 0 0 0 0 0 0
0 0 0 0 0 0 0 0 0 0 0 0 0 0 0 0 0 0 0 0 0 0 0 0 0 0 0 0 0 0 0 0 0 0 0 0 0 0 0 0 0 0 0
0 0 0 0 0 0 0 0 0 0 0 0 0 0 0 0 0 0 0 0 0 0 0 0 0 0 0 0 0 0 0 0 0 0 0 0 0 0 0 0 0 0 0
0 0 0 0 0 0 0 0 0 0 0 0 0 0 0 0 0 0 0 0 0 0 0 0 0 0 0 0 0 0 0 0 0 0 0 0 0 0 0 0 0 0 0
0 0 0 0 0 0 0 0 0 0 0 0 0 0 0 0 0 0 0 0 0 0 0 0 0 0 0 0 0 0 0 0 0 0 0 0 0 0 0 0 0 0 0
0 0 0 0 0 0 0 0 0 0 0 0 0 0 0 0 0 0 0 0 0 0 0 0 0 0 0 0 0 0 0 0 0 0 0 0 0 0 0 0 0 0 0
0 0 0 0 0 0 0 0 0 0 0 0 0 0 0 0 0 0 0 0 0 0 0 0 0 0 0 0 0 0 0 0 0 0 0 0 0 0 0 0 0 0 0
0 0 0 0 0 0 0 0 0 0 0 0 0 0 0 0 0 0 0 0 0 0 0 0 0 0 0 0 0 0 0 0 0 0 0 0 0 0 0 0 0 0 0
0 0 0 0 0 0 0 0 0 0 0 0 0 0 0 0 0 0 0 0 0 0 0 0 0 0 0 0 0 0 0 0 0 0 0 0 0 0 0 0 0 0 0
0 0 0 0 0 0 0 0 0 0 0 0 0 0 0 0 0 0 0 0 0 0 0 0 0 0 0 0 0 0 0 0 0 0 0 0 0 0 0 0 0 0 0
0 0 0 0 0 0 0 0 0 0 0 0 0 0 0 0 0 0 0 0 0 0 0 0 0 0 0 0 0 0 0 0 0 0 0 0 0 0 0 0 0 0 0
0 0 0 0 0 0 0 0 0 0 0 0 0 0 0 0 0 0 0 0 0 0 0 0 0 0 0 0 0 0 0 0 0 0 0 0 0 0 0 0 0 0 0
0 0 0 0 0 0 0 0 0 0 0 0 0 0 0 0 0 0 0 0 0 0 0 0 0 0 0 0 0 0 0 0 0 0 0 0 0 0 0 0 0 0 0
0 0 0 0 0 0 0 0 0 0 0 0 0 0 0 0 0 0 0 0 0 0 0 0 0 0 0 0 0 0 0 0 0 0 0 0 0 0 0 0 0 0 0
0 0 0 0 0 0 0 0 0 0 0 0 0 0 0 0 0 0 0 0 0 0 0 0 0 0 0 0 0 0 0 0 0 0 0 0 0 0 0 0 0 0 0
0 0 0 0 0 0 0 0 0 0 0 0 0 0 0 0 0 0 0 0 0 0 0 0 0 0 0 0 0 0 0 0 0 0 0 0 0 0 0 0 0 0 0
0 0 0 0 0 0 0 0 0 0 0 0 0 0 0 0 0 0 0 0 0 0 0 0 0 0 0 0 0 0 0 0 0 0 0 0 0 0 0 0 0 0 0
Wind_Speed
3 4 3 3 2 2 3 3 3 3 3 4 4 3 3 4 4 4 4 4 5 5 4 5 6 5 5 4 4 4 4 3 4 3 2 2 3 4 3 4 5 6 6
3 3 2 2 2 2 2 2 2 2 3 3 3 3 3 4 4 4 4 4 4 5 5 5 6 5 6 5 4 5 4 4 4 5 3 2 3 4 5 5 4 4 5
3 2 2 2 2 2 2 1 2 2 2 2 2 3 3 4 4 3 4 4 4 4 4 5 5 5 6 4 4 4 4 4 3 4 3 2 2 2 3 3 3 3 3
2 2 2 2 2 2 1 1 1 1 1 2 2 2 3 3 3 3 3 3 3 3 4 4 5 5 6 5 4 4 3 3 3 3 3 2 2 2 2 2 2 2 3
2 2 2 2 2 1 1 1 1 1 1 0 1 1 2 2 2 2 2 3 3 3 3 4 5 5 5 5 4 4 4 4 3 3 3 2 2 2 3 2 3 2 1
2 2 2 2 2 1 1 1 1 1 1 1 1 2 2 2 3 4 4 2 3 3 3 3 4 4 4 6 6 6 7 6 6 5 4 4 4 3 3 3 2 2 2
2 2 2 2 2 2 1 1 0 1 1 1 2 2 2 2 3 4 4 3 2 2 3 3 3 2 2 2 4 5 7 9 9 6 6 6 5 5 4 4 3 3 2
3 3 2 2 2 2 1 1 1 1 1 1 1 1 1 2 3 4 4 3 2 2 3 3 3 3 2 2 3 3 3 4 6 5 5 5 4 4 5 4 3 2 1
4 3 3 2 2 2 2 2 2 1 1 2 1 1 1 2 3 4 4 1 1 2 3 3 3 3 3 3 2 2 2 2 2 4 4 4 5 5 5 4 4 3 1
4 4 3 2 2 3 3 2 2 1 2 2 2 1 2 2 3 4 4 1 1 2 2 2 3 4 4 3 3 3 3 2 2 2 2 2 2 3 5 4 5 4 2
4 4 4 3 3 2 2 2 2 2 2 2 2 2 2 3 4 4 5 2 1 2 2 2 2 4 4 4 4 3 4 3 2 2 2 2 1 1 2 2 2 3 3
4 4 4 3 3 3 2 3 2 2 2 2 2 3 2 2 3 4 5 5 5 3 3 3 3 4 4 4 3 3 3 2 1 2 2 2 2 2 1 2 2 2 2
4 4 4 4 3 3 2 3 2 2 2 2 2 2 3 2 2 4 5 5 6 4 2 3 4 3 3 1 2 3 3 2 2 2 2 2 2 2 2 2 3 4 4
3 3 3 4 3 3 3 2 2 2 2 2 2 3 3 3 2 2 2 2 3 3 2 2 2 2 1 0 2 2 1 2 2 2 1 2 2 3 2 2 2 3 3
3 3 3 3 3 3 2 2 3 2 3 3 2 2 3 3 4 6 4 2 2 2 2 1 0 1 1 1 1 1 1 1 1 2 2 2 2 3 2 2 2 2 2
3 3 3 2 3 3 3 3 5 5 7 8 7 6 5 6 7 8 7 7 6 4 2 1 1 1 2 2 2 1 1 1 2 2 2 2 2 3 3 2 2 3 3
3 3 3 3 3 3 3 3 4 5 7 7 7 8 7 7 7 7 6 6 5 3 1 1 2 2 2 2 2 2 1 1 2 2 2 2 2 2 3 3 3 3 3
3 4 4 3 3 3 3 3 3 4 5 5 6 7 7 6 6 5 4 3 2 2 0 1 1 2 2 2 2 1 2 2 2 2 2 2 2 3 3 3 3 4 4
3 2 3 2 3 3 3 3 3 4 4 4 4 4 5 5 5 4 3 1 1 1 1 1 1 1 1 1 1 1 2 2 2 2 2 2 2 3 3 3 3 5 4
2 5 5 3 3 3 3 3 3 3 4 4 4 3 3 3 2 2 2 1 1 1 1 1 1 1 1 1 1 1 2 2 3 2 2 2 2 3 3 3 3 4 4
2 3 6 4 3 3 3 3 3 3 3 4 3 4 5 3 2 2 2 2 1 1 1 1 1 1 1 1 1 2 3 2 2 2 2 2 3 3 3 3 3 3 4
2 2 2 3 3 3 3 3 3 3 4 4 4 4 6 3 2 2 2 2 2 1 1 1 1 1 2 2 2 2 3 3 3 3 2 2 3 3 3 3 3 4 5
2 2 3 3 3 5 5 3 3 3 4 4 4 3 3 2 2 2 2 1 1 1 1 1 1 1 1 1 1 2 3 3 3 3 3 3 3 3 3 4 4 5 5
2 3 3 3 3 3 3 4 3 4 4 4 4 4 3 3 2 2 2 1 1 1 1 0 1 1 2 1 1 1 1 2 3 3 4 3 3 3 3 4 4 5 6
2 3 3 3 3 3 3 4 4 4 4 4 4 4 3 3 2 2 1 1 1 1 1 0 0 1 1 2 1 1 3 4 3 3 3 3 4 4 4 5 5 5 5
3 3 3 3 3 3 3 4 4 4 4 4 4 4 3 3 2 2 1 1 1 1 1 0 0 1 1 1 2 3 4 5 5 4 3 3 5 4 5 4 6 6 7
Wind_Direction
283 279 282 281 275 255 243 238 225 217 207 206 205 209 216 219 217 218 223 222 223 226 224 225 232 233 234 230 215 213 218 212 234 253 245 213 198 200 196 191 191 194 199
284 288 290 292 286 268 253 245 227 224 215 210 201 214 226 228 222 215 223 233 234 232 228 228 234 235 239 231 210 210 214 215 216 237 245 224 215 201 199 197 191 190 194
301 307 314 317 315 296 278 253 225 221 223 223 216 224 231 230 227 217 219 233 240 240 236 232 236 239 240 227 210 212 214 220 216 217 235 224 227 196 188 196 185 181 191
329 325 323 316 315 300 307 313 265 211 214 224 228 232 229 232 236 235 231 235 240 245 247 243 239 242 230 218 213 212 211 210 205 208 221 210 213 196 167 186 197 191 197
352 335 326 335 341 342 2 355 4 15 289 228 229 247 241 241 239 244 242 245 241 250 257 257 256 246 232 223 219 211 205 205 201 209 215 204 202 185 198 198 200 188 200
10 345 338 354 353 2 22 17 3 337 310 273 241 244 248 261 269 277 276 265 247 246 254 266 266 260 244 233 230 227 216 211 208 209 216 209 217 204 197 191 180 168 220
7 353 354 1 355 348 345 16 340 299 301 288 265 245 244 241 267 282 288 283 256 252 255 266 273 261 259 237 235 237 231 226 222 214 210 212 209 204 188 195 198 191 214
4 359 357 360 357 351 2 343 306 305 303 298 297 276 271 257 274 287 301 303 292 286 271 260 256 253 241 233 232 235 238 233 223 217 212 212 204 193 191 191 182 147 95
359 352 345 343 346 348 347 341 325 322 315 307 293 282 276 262 274 288 298 302 300 299 286 275 259 252 248 235 217 225 238 239 202 186 185 188 189 186 171 145 147 147 173
349 345 347 350 353 346 339 336 333 327 310 307 304 288 262 245 269 288 300 286 293 294 290 280 269 260 267 238 216 202 211 222 194 173 165 151 170 166 162 172 172 170 162
348 354 353 355 347 335 333 332 331 328 327 317 306 298 288 270 280 286 291 285 259 276 278 278 263 261 263 252 235 213 202 201 195 172 168 163 140 151 156 153 166 175 173
358 356 349 343 334 332 333 327 326 325 321 310 299 301 302 293 283 282 286 286 286 270 267 265 257 262 269 259 236 181 166 171 172 167 165 175 174 171 151 138 127 117 139
357 351 344 343 340 333 326 321 319 318 305 301 298 293 298 303 294 286 288 291 296 286 263 267 285 291 300 283 167 160 158 164 159 170 182 191 177 158 137 113 92 93 78
341 335 339 342 340 340 335 326 317 309 300 294 294 297 300 300 300 299 289 300 312 312 304 296 297 313 318 140 149 147 155 169 165 167 167 159 141 138 138 132 124 119 94
329 326 328 330 326 326 326 321 311 303 291 292 283 277 285 292 296 302 300 295 289 274 290 278 172 150 139 146 140 132 135 145 149 148 141 148 147 139 138 136 130 126 117
321 319 317 314 314 312 309 315 315 304 310 302 294 287 286 285 296 304 310 310 311 306 312 164 185 186 186 183 177 166 165 172 164 152 143 144 154 151 140 128 128 132 128
305 304 305 303 302 306 310 307 310 318 316 310 304 302 297 293 296 301 311 316 309 312 327 176 187 190 188 181 175 173 176 172 155 150 149 146 142 147 143 140 139 134 128
302 296 298 297 296 294 293 295 296 302 314 316 312 307 303 302 305 304 309 322 321 324 301 198 190 181 171 169 173 169 165 159 154 148 147 145 148 148 148 152 153 148 141
304 299 297 295 295 295 296 298 302 300 302 307 316 317 313 310 310 305 312 325 260 260 251 220 201 181 173 176 177 179 175 165 156 149 150 154 156 150 151 154 151 144 137
304 301 306 306 303 306 307 304 304 307 306 307 307 309 316 324 324 317 317 315 289 267 249 231 215 188 177 172 174 177 159 151 149 153 158 157 156 154 152 150 151 151 148
304 307 307 310 309 307 306 306 307 307 305 302 301 303 301 299 287 288 287 285 276 262 245 233 221 182 169 167 177 171 161 159 159 161 161 157 156 152 147 145 148 146 138
300 300 304 303 305 308 305 303 304 304 304 306 308 309 306 310 306 303 298 292 289 279 252 228 222 205 189 185 184 177 167 165 165 163 158 154 151 147 140 140 142 140 137
300 301 302 304 304 302 305 306 304 302 301 303 307 304 305 306 304 301 300 299 303 304 285 217 198 185 164 168 183 184 175 176 172 167 158 154 151 150 147 145 146 145 144
298 297 296 297 300 299 300 300 299 298 299 300 303 300 293 291 294 297 300 298 297 297 289 234 186 169 169 173 175 179 167 162 156 158 160 158 155 151 146 145 147 148 145
297 294 293 291 292 293 294 295 295 297 297 297 299 298 294 290 292 294 295 300 305 306 310 287 199 168 169 177 181 168 153 150 154 153 152 149 146 144 143 142 141 139 136
287 286 286 285 285 286 287 289 293 295 293 292 293 292 290 288 289 292 291 289 296 302 301 304 145 166 173 162 157 157 150 145 143 141 140 139 140 141 142 138 137 133 132